Williston, ND

12:59 AM CDT on October 22, 2017 (GMT -0500)
Sloulin International

Weather History for KISN - March, 2013

Change the Weather History Date:

Wednesday, March 6, 2013

  Actual Average Record
Temperature  
Mean Temperature 13 °F 24 °F  
Max Temperature 21 °F 35 °F 70 °F (2016)
Min Temperature 5 °F 14 °F -24 °F (1996)
Degree Days  
Heating Degree Days 52 41  
Month to date heating degree days 258 250  
Since 1 July heating degree days 6846 7018  
Cooling Degree Days 0 0  
Month to date cooling degree days 0 0  
Year to date cooling degree days 0 0  
Moisture  
Dew Point 13 °F    
Average Humidity 85    
Maximum Humidity 92    
Minimum Humidity 77    
Precipitation  
Precipitation T in 0.02 in 0.69 in (1983)
Month to date precipitation 0.65 0.12  
Year to date precipitation 1.22 1.10  
Snow  
Snow T in - - ()
Month to date snowfall 13.0  
Snow Depth 14.00 in    
Sea Level Pressure  
Sea Level Pressure 30.22 in    
Wind  
Wind Speed 10 mph (ESE)    
Max Wind Speed 18 mph    
Max Gust Speed 24 mph    
Visibility 10 miles    
Events      
T = Trace of Precipitation, MM = Missing Value Source: NWS Daily Summary

Daily Weather History Graph

Daily Weather History Graph

Search for Another Location

Airport or City:

Trip Planner

Search our weather history database for the weather conditions in past years. The results will help you decide how hot, cold, wet, or windy it might be!

Date:

Astronomy

Mar. 06, 2013 Rise Set
Actual Time 7:25 AM CST 6:46 PM CST
Civil Twilight 6:54 AM CST 7:18 PM CST
Nautical Twilight 6:18 AM CST 7:54 PM CST
Astronomical Twilight 5:41 AM CST 8:30 PM CST
Moon 3:56 AM CST (3/6) 1:12 PM CST (3/6)
Length of Visible Light 12h 23m
Length of Day
11h 21m
Waning Crescent, 29% of the Moon is Illuminated
Mar 6
Waning Crescent
Mar 11
New
Mar 19
First Quarter
Mar 27
Full
Apr 2
Last Quarter

Hourly Weather History & Observations

Time (CST) Temp. Windchill Dew Point Humidity Pressure Visibility Wind Dir Wind Speed Gust Speed Precip Events Conditions
12:52 AM 12.9 °F 5.2 °F 10.0 °F 88% 30.42 in 10.0 mi ESE 4.6 mph - N/A   Overcast
1:13 AM 10.4 °F 4.0 °F 8.6 °F 92% 30.28 in 10.0 mi East 3.5 mph - N/A   Scattered Clouds
1:52 AM 9.0 °F 0.6 °F 7.0 °F 92% 30.41 in 10.0 mi East 4.6 mph - N/A   Clear
2:52 AM 9.0 °F - 7.0 °F 92% 30.40 in 10.0 mi Calm Calm - N/A   Partly Cloudy
3:05 AM 6.8 °F - 6.8 °F 100% 30.27 in 10.0 mi Calm Calm - N/A   Mostly Cloudy
3:52 AM 10.9 °F - 9.0 °F 92% 30.39 in 10.0 mi Calm Calm - N/A   Overcast
4:52 AM 12.9 °F - 10.9 °F 92% 30.38 in 10.0 mi Calm Calm - N/A   Overcast
5:52 AM 15.1 °F 4.2 °F 12.0 °F 88% 30.37 in 10.0 mi SE 8.1 mph - N/A   Overcast
6:52 AM 15.1 °F 5.2 °F 12.9 °F 91% 30.36 in 10.0 mi ESE 6.9 mph - N/A   Overcast
7:52 AM 15.1 °F 2.5 °F 12.0 °F 88% 30.35 in 10.0 mi SE 10.4 mph - N/A   Overcast
8:52 AM 15.1 °F 1.8 °F 12.0 °F 88% 30.34 in 10.0 mi SE 11.5 mph - N/A   Overcast
9:52 AM 17.1 °F 5.0 °F 12.9 °F 84% 30.32 in 10.0 mi SE 10.4 mph - N/A   Overcast
10:50 AM 17.6 °F 3.7 °F 12.2 °F 79% 30.17 in 10.0 mi SE 13.8 mph - N/A   Scattered Clouds
10:52 AM 17.1 °F 3.0 °F 12.9 °F 84% 30.30 in 10.0 mi SE 13.8 mph - N/A   Scattered Clouds
11:52 AM 19.0 °F 6.1 °F 14.0 °F 81% 30.27 in 10.0 mi SE 12.7 mph - N/A   Clear
12:52 PM 19.9 °F 5.7 °F 14.0 °F 78% 30.24 in 10.0 mi SE 16.1 mph - N/A   Partly Cloudy
1:52 PM 19.9 °F 6.7 °F 14.0 °F 78% 30.21 in 10.0 mi SE 13.8 mph - N/A   Partly Cloudy
2:52 PM 19.9 °F 6.7 °F 15.1 °F 81% 30.18 in 10.0 mi ESE 13.8 mph - N/A   Clear
3:52 PM 21.0 °F 7.6 °F 15.1 °F 78% 30.16 in 10.0 mi ESE 15.0 mph - N/A   Partly Cloudy
4:52 PM 19.9 °F 5.2 °F 15.1 °F 81% 30.15 in 10.0 mi ESE 17.3 mph - N/A   Clear
5:33 PM 19.4 °F 6.0 °F 14.0 °F 80% 30.02 in 10.0 mi ESE 13.8 mph 20.7 mph N/A   Mostly Cloudy
5:52 PM 19.0 °F 5.6 °F 14.0 °F 81% 30.13 in 10.0 mi ESE 13.8 mph - N/A   Overcast
6:52 PM 19.0 °F 5.0 °F 15.1 °F 85% 30.11 in 10.0 mi East 15.0 mph - N/A   Overcast
7:52 PM 19.9 °F 6.7 °F 16.0 °F 85% 30.10 in 10.0 mi ESE 13.8 mph - N/A   Overcast
8:52 PM 18.0 °F 3.6 °F 14.0 °F 84% 30.09 in 10.0 mi East 15.0 mph - N/A   Overcast
9:37 PM 17.6 °F 3.7 °F 14.0 °F 86% 29.98 in 10.0 mi East 13.8 mph - N/A   Overcast
9:52 PM 17.1 °F 4.3 °F 14.0 °F 88% 30.09 in 10.0 mi East 11.5 mph - N/A   Overcast
10:52 PM 17.1 °F 5.0 °F 14.0 °F 88% 30.09 in 10.0 mi ESE 10.4 mph 17.3 mph N/A   Overcast
11:10 PM 17.6 °F 5.7 °F 12.2 °F 79% 29.97 in 10.0 mi ESE 10.4 mph - N/A   Scattered Clouds
11:52 PM 17.1 °F 5.0 °F 12.9 °F 84% 30.07 in 10.0 mi SE 10.4 mph - N/A   Partly Cloudy